Regional Weather Roundup
Issued by NWS

Home | Current Version | Previous Version | Graphics & Text | Print | Product List | Glossary On
Versions: 1 2 3 4 5 6 7 8 9 10 11 12 13 14 15 16 17 18 19 20 21 22 23 24 25 26 27 28 29 30 31 32 33 34 35 36 37 38 39 40 41 42 43 44 45 46 47 48 49 50
000
ASUS43 KOAX 251510
RWRNE

WEATHER ROUNDUP FOR NEBRASKA
NATIONAL WEATHER SERVICE OMAHA NE
1000 AM CDT SAT OCT 25 2014

NOTES: SATELLITE DATA IS BEING USED TO AUGMENT CLOUD COVER ABOVE
       12000 FEET.
       "FAIR" INDICATES FEW OR NO CLOUDS BELOW 12,000 FEET WITH NO
       SIGNIFICANT WEATHER AND/OR OBSTRUCTIONS TO VISIBILITY.

  * THESE STATIONS DO NOT REPORT WEATHER SUCH AS RAIN...SNOW OR FOG.

NEZ001>004-019>022-054>056-251600-
NEBRASKA PANHANDLE

CITY           SKY/WX    TMP DP  RH WIND       PRES   REMARKS
SCOTTSBLUFF    SUNNY     50  32  50 N3        30.19S
ALLIANCE       SUNNY     44  37  76 N3        30.18R
CHADRON        SUNNY     39  36  89 SW6       30.20R WCI  35
KIMBALL        SUNNY     52  32  46 W5        30.19S
SIDNEY         SUNNY     50  33  52 NW7       30.19R
$$

NEZ057>060-069>072-079>082-251600-
SOUTHWEST NEBRASKA

CITY           SKY/WX    TMP DP  RH WIND       PRES   REMARKS
NORTH PLATTE   SUNNY     48  40  73 W3        30.15R
IMPERIAL       SUNNY     51  35  54 NW8       30.15R
LEXINGTON      SUNNY     53  46  74 CALM      30.13S
MCCOOK         SUNNY     53  39  59 NE5       30.13R
OGALLALA       SUNNY     45  39  78 SW3       30.16R
$$

NEZ005>010-023>029-035>040-094-251600-
NORTH CENTRAL NEBRASKA

CITY           SKY/WX    TMP DP  RH WIND       PRES   REMARKS
VALENTINE      SUNNY     48  35  60 CALM      30.18R
AINSWORTH      SUNNY     49  39  67 CALM      30.18R
BROKEN BOW     SUNNY     58  41  53 E7        30.14R
O`NEILL        SUNNY     56  42  61 NE5       30.16R
ORD            SUNNY     55  40  56 CALM      30.13R
THEDFORD       SUNNY     48  39  71 CALM      30.17S
$$

NEZ041-046>049-061>064-073>077-083>087-251600-
SOUTH CENTRAL NEBRASKA

CITY           SKY/WX    TMP DP  RH WIND       PRES   REMARKS
GRAND ISLAND   SUNNY     54  45  71 NE8       30.14R
AURORA         SUNNY     55  44  65 NE8       30.12S
HASTINGS       SUNNY     56  44  64 NE7       30.12S
HEBRON         SUNNY     55  48  76 CALM      30.11S
HOLDREGE       SUNNY     55  46  72 CALM      30.12S
KEARNEY *      SUNNY     54  45  71 NE9       30.13S
YORK           SUNNY     54  46  76 NE7       30.13R
$$

NEZ011>018-030>034-042>045-251600-
NORTHEAST NEBRASKA

CITY           SKY/WX    TMP DP  RH WIND       PRES   REMARKS
NORFOLK        SUNNY     55  44  66 CALM      30.13S
ALBION         SUNNY     57  42  57 E5        30.13S
BLAIR          SUNNY     59  44  58 NE5       30.12S
COLUMBUS *     SUNNY     57  45  62 E7        30.14R
FREMONT        SUNNY     56  47  72 CALM      30.13S
TEKAMAH        SUNNY     56  48  74 N6        30.13R
WAYNE          SUNNY     53  45  74 CALM      30.14S
$$

NEZ050>053-065>068-078-088>093-251600-
SOUTHEAST NEBRASKA

CITY           SKY/WX    TMP DP  RH WIND       PRES   REMARKS
LINCOLN        SUNNY     56  49  77 N5        30.13R
OMAHA EPPLEY   MOSUNNY   54  48  80 N6        30.13R
BEATRICE       SUNNY     57  53  85 N6        30.11S
FALLS CITY     SUNNY     60  56  86 CALM      30.09R
NEBRASKA CITY  SUNNY     58  48  70 NE5       30.11S
PLATTSMOUTH    SUNNY     57  48  73 N3        30.12R
$$

NEZ044-045-051>053-067-251600-
OMAHA AREA

CITY           SKY/WX    TMP DP  RH WIND       PRES   REMARKS
OMAHA EPPLEY   MOSUNNY   54  48  80 N6        30.13R
BLAIR          SUNNY     59  44  58 NE5       30.12S
FREMONT        SUNNY     56  47  72 CALM      30.13S
MILLARD        SUNNY     56  48  75 CALM      30.12F
OFFUTT AFB     SUNNY     56  56 100 NE2       30.12R
PLATTSMOUTH    SUNNY     57  48  73 N3        30.12R
WAHOO          FAIR      56  46  71 N5        30.13R
$$



USA.gov is the U.S. government's official web portal to all federal, state and local government web resources and services.